AJD414 KSGF-KMEM

Flight info

Callsign AJD414
Flight time 0h 39m
Altitude 33000
Route WHOLL BRBBQ3
Aircraft E190/M-SDE1E2E3FGHIJ3J4J7P2RWXY/LB1D1G1

Departure

Time 2026-05-07 23:49
Airport Springfield Branson National Airport (KSGF)

Arrival

Time 2026-05-08 00:28
Airport Memphis International Airport (KMEM)
Time Latitude Longitude Altitude Speed Heading
2026-05-07 23:20 37.25037 -93.37899 1265 ft 0 kts 293°
2026-05-07 23:44 37.25041 -93.37908 1265 ft 2 kts 301°
2026-05-07 23:44 37.25052 -93.37915 1265 ft 3 kts
2026-05-07 23:45 37.25075 -93.37909 1265 ft 0 kts 359°
2026-05-07 23:45 37.25080 -93.37907 1265 ft 0 kts 12°
2026-05-07 23:45 37.25081 -93.37907 1265 ft 0 kts 12°
2026-05-07 23:46 37.25089 -93.37903 1265 ft 2 kts 24°
2026-05-07 23:46 37.25118 -93.37890 1265 ft 5 kts
2026-05-07 23:46 37.25151 -93.37912 1264 ft 6 kts 301°
2026-05-07 23:46 37.25190 -93.37953 1264 ft 7 kts
2026-05-07 23:47 37.25241 -93.37933 1264 ft 8 kts 21°
2026-05-07 23:47 37.25292 -93.37919 1263 ft 5 kts 337°
2026-05-07 23:47 37.25318 -93.37970 1263 ft 9 kts 288°
2026-05-07 23:47 37.25310 -93.38048 1263 ft 6 kts 216°
2026-05-07 23:48 37.25283 -93.38064 1263 ft 0 kts 201°
2026-05-07 23:48 37.25161 -93.38126 1263 ft 55 kts 202°
2026-05-07 23:48 37.24665 -93.38374 1266 ft 95 kts 202°
2026-05-07 23:49 37.23947 -93.38734 1269 ft 124 kts 201°
2026-05-07 23:49 37.23083 -93.39127 1355 ft 144 kts 200°
2026-05-07 23:49 37.22081 -93.39527 1917 ft 153 kts 202°
2026-05-07 23:49 37.21124 -93.39923 2741 ft 144 kts 200°
2026-05-07 23:50 37.20018 -93.40382 2979 ft 192 kts 201°
2026-05-07 23:50 37.18660 -93.40951 3635 ft 218 kts 198°
2026-05-07 23:50 37.17133 -93.40930 4616 ft 235 kts 163°
2026-05-07 23:50 37.15729 -93.39587 5083 ft 276 kts 125°
2026-05-07 23:51 37.14771 -93.37480 6062 ft 287 kts 120°
2026-05-07 23:51 37.13799 -93.35266 7145 ft 294 kts 120°
2026-05-07 23:51 37.12798 -93.33054 8135 ft 302 kts 120°
2026-05-07 23:51 37.11727 -93.30732 9082 ft 311 kts 120°
2026-05-07 23:52 37.10621 -93.28395 10036 ft 319 kts 120°
2026-05-07 23:52 37.09479 -93.26002 10898 ft 329 kts 120°
2026-05-07 23:52 37.08297 -93.23508 11312 ft 343 kts 120°
2026-05-07 23:52 37.07068 -93.20909 12136 ft 353 kts 120°
2026-05-07 23:53 37.05813 -93.18222 12908 ft 364 kts 120°
2026-05-07 23:53 37.04548 -93.15485 13787 ft 370 kts 120°
2026-05-07 23:53 37.03264 -93.12688 14655 ft 376 kts 120°
2026-05-07 23:53 37.01979 -93.09830 15536 ft 381 kts 120°
2026-05-07 23:54 37.00679 -93.06918 16292 ft 389 kts 120°
2026-05-07 23:54 36.99372 -93.03951 17182 ft 393 kts 120°
2026-05-07 23:54 36.98054 -93.00950 17958 ft 399 kts 120°
2026-05-07 23:54 36.96718 -92.97893 18717 ft 406 kts 120°
2026-05-07 23:55 36.95369 -92.94771 19427 ft 413 kts 120°
2026-05-07 23:55 36.94017 -92.91598 20181 ft 419 kts 120°
2026-05-07 23:55 36.92666 -92.88360 20899 ft 426 kts 120°
2026-05-07 23:55 36.91311 -92.85059 21633 ft 431 kts 120°
2026-05-07 23:56 36.89948 -92.81703 22281 ft 438 kts 119°
2026-05-07 23:56 36.88571 -92.78293 22974 ft 443 kts 120°
2026-05-07 23:56 36.87191 -92.74833 23666 ft 448 kts 119°
2026-05-07 23:56 36.85829 -92.71340 24386 ft 452 kts 119°
2026-05-07 23:57 36.84454 -92.67805 24994 ft 458 kts 120°
2026-05-07 23:57 36.83045 -92.64183 25593 ft 464 kts 119°
2026-05-07 23:57 36.81659 -92.60560 26293 ft 467 kts 119°
2026-05-07 23:57 36.80268 -92.56883 26876 ft 472 kts 119°
2026-05-07 23:58 36.78862 -92.53163 27404 ft 478 kts 119°
2026-05-07 23:58 36.77380 -92.49459 27990 ft 478 kts 126°
2026-05-07 23:58 36.75564 -92.46011 28504 ft 481 kts 129°
2026-05-07 23:58 36.73766 -92.42472 29056 ft 487 kts 127°
2026-05-07 23:59 36.72001 -92.38873 29680 ft 490 kts 127°
2026-05-07 23:59 36.70224 -92.35221 30077 ft 497 kts 128°
2026-05-07 23:59 36.68412 -92.31496 30420 ft 504 kts 128°
2026-05-07 23:59 36.66598 -92.27764 30894 ft 508 kts 129°
2026-05-08 00:00 36.64770 -92.24008 31300 ft 512 kts 129°
2026-05-08 00:00 36.62904 -92.20178 31713 ft 517 kts 129°
2026-05-08 00:00 36.61006 -92.16285 32223 ft 519 kts 130°
2026-05-08 00:00 36.59129 -92.12445 32631 ft 522 kts 130°
2026-05-08 00:01 36.57253 -92.08601 32954 ft 517 kts 131°
2026-05-08 00:01 36.55328 -92.04681 32996 ft 529 kts 130°
2026-05-08 00:01 36.53366 -92.00678 33011 ft 542 kts 131°
2026-05-08 00:01 36.51382 -91.96633 33005 ft 549 kts 130°
2026-05-08 00:02 36.47391 -91.88507 33003 ft 548 kts 131°
2026-05-08 00:02 36.43369 -91.80344 33001 ft 548 kts 131°
2026-05-08 00:03 36.39383 -91.72275 33006 ft 548 kts 131°
2026-05-08 00:03 36.35371 -91.64169 33003 ft 547 kts 131°
2026-05-08 00:04 36.31371 -91.56107 33003 ft 537 kts 131°
2026-05-08 00:04 36.27478 -91.48284 33013 ft 530 kts 132°
2026-05-08 00:05 36.23583 -91.40472 33008 ft 531 kts 131°
2026-05-08 00:05 36.19437 -91.32930 32253 ft 531 kts 141°
2026-05-08 00:06 36.16905 -91.29691 30714 ft 519 kts 150°
2026-05-08 00:06 36.14165 -91.26981 30111 ft 494 kts 158°
2026-05-08 00:06 36.11255 -91.24876 29575 ft 472 kts 167°
2026-05-08 00:06 36.08235 -91.23286 29052 ft 465 kts 169°
2026-05-08 00:07 36.05278 -91.21618 28532 ft 473 kts 167°
2026-05-08 00:07 36.02306 -91.19852 28005 ft 470 kts 166°
2026-05-08 00:07 35.99389 -91.18098 27486 ft 467 kts 165°
2026-05-08 00:07 35.96491 -91.16351 26980 ft 465 kts 165°
2026-05-08 00:08 35.93605 -91.14610 26465 ft 459 kts 165°
2026-05-08 00:08 35.90717 -91.12869 25957 ft 456 kts 164°
2026-05-08 00:08 35.87880 -91.11162 25450 ft 453 kts 164°
2026-05-08 00:08 35.85051 -91.09460 24948 ft 451 kts 163°
2026-05-08 00:09 35.82247 -91.07775 24460 ft 450 kts 163°
2026-05-08 00:09 35.79456 -91.06104 24039 ft 448 kts 163°
2026-05-08 00:09 35.76641 -91.04422 23544 ft 444 kts 162°
2026-05-08 00:09 35.73880 -91.02773 23059 ft 442 kts 162°
2026-05-08 00:10 35.71138 -91.01135 22571 ft 437 kts 162°
2026-05-08 00:10 35.68409 -90.99508 22090 ft 435 kts 162°
2026-05-08 00:10 35.65700 -90.97895 21612 ft 432 kts 161°
2026-05-08 00:10 35.63008 -90.96291 21137 ft 429 kts 161°
2026-05-08 00:11 35.60341 -90.94704 20666 ft 424 kts 161°
2026-05-08 00:11 35.57698 -90.93133 20201 ft 421 kts 161°
2026-05-08 00:11 35.55077 -90.91576 19739 ft 419 kts 161°
2026-05-08 00:11 35.52465 -90.90009 19273 ft 416 kts 158°
2026-05-08 00:12 35.50228 -90.87775 18828 ft 419 kts 133°
2026-05-08 00:12 35.48734 -90.84713 18374 ft 421 kts 117°
2026-05-08 00:12 35.47496 -90.81484 17894 ft 418 kts 117°
2026-05-08 00:12 35.46278 -90.78272 17433 ft 415 kts 116°
2026-05-08 00:13 35.45068 -90.75077 16929 ft 411 kts 116°
2026-05-08 00:13 35.43874 -90.71925 16480 ft 408 kts 116°
2026-05-08 00:13 35.42686 -90.68792 16034 ft 404 kts 116°
2026-05-08 00:13 35.41508 -90.65705 16037 ft 401 kts 116°
2026-05-08 00:14 35.40309 -90.62567 16053 ft 403 kts 117°
2026-05-08 00:14 35.39120 -90.59462 16036 ft 404 kts 116°
2026-05-08 00:14 35.37925 -90.56342 15657 ft 405 kts 116°
2026-05-08 00:14 35.36738 -90.53245 15212 ft 400 kts 116°
2026-05-08 00:15 35.35567 -90.50196 14771 ft 393 kts 116°
2026-05-08 00:15 35.34300 -90.47259 14347 ft 390 kts 129°
2026-05-08 00:15 35.32620 -90.44682 13933 ft 387 kts 132°
2026-05-08 00:15 35.30924 -90.42150 13502 ft 385 kts 131°
2026-05-08 00:16 35.29243 -90.39641 13084 ft 381 kts 131°
2026-05-08 00:16 35.27593 -90.37167 12662 ft 367 kts 131°
2026-05-08 00:16 35.26018 -90.34806 12259 ft 351 kts 132°
2026-05-08 00:16 35.24507 -90.32544 11974 ft 333 kts 132°
2026-05-08 00:17 35.23047 -90.30362 11757 ft 331 kts 132°
2026-05-08 00:17 35.21770 -90.28455 11450 ft 331 kts 132°
2026-05-08 00:17 35.20400 -90.26411 11119 ft 329 kts 132°
2026-05-08 00:17 35.18918 -90.24200 10749 ft 326 kts 131°
2026-05-08 00:18 35.17474 -90.22047 10388 ft 324 kts 131°
2026-05-08 00:18 35.16058 -90.19936 10035 ft 323 kts 131°
2026-05-08 00:18 35.14633 -90.17815 9686 ft 322 kts 131°
2026-05-08 00:18 35.13222 -90.15713 9375 ft 318 kts 131°
2026-05-08 00:19 35.11825 -90.13636 9022 ft 312 kts 130°
2026-05-08 00:19 35.10352 -90.11838 8667 ft 292 kts 153°
2026-05-08 00:19 35.08498 -90.11152 8426 ft 265 kts 180°
2026-05-08 00:19 35.06713 -90.11057 8166 ft 253 kts 184°
2026-05-08 00:20 35.04966 -90.11032 7907 ft 247 kts 184°
2026-05-08 00:20 35.03254 -90.11036 7667 ft 245 kts 185°
2026-05-08 00:20 35.01554 -90.11005 7413 ft 246 kts 182°
2026-05-08 00:20 34.99851 -90.10941 7153 ft 245 kts 182°
2026-05-08 00:21 34.98147 -90.10880 6880 ft 245 kts 182°
2026-05-08 00:21 34.96442 -90.10822 6610 ft 245 kts 181°
2026-05-08 00:21 34.94743 -90.10764 6340 ft 244 kts 181°
2026-05-08 00:21 34.93035 -90.10706 6064 ft 241 kts 181°
2026-05-08 00:22 34.91385 -90.10650 5791 ft 233 kts 181°
2026-05-08 00:22 34.89783 -90.10596 5532 ft 226 kts 181°
2026-05-08 00:22 34.88236 -90.10544 5295 ft 219 kts 181°
2026-05-08 00:22 34.86745 -90.10312 5063 ft 212 kts 162°
2026-05-08 00:23 34.85652 -90.09535 4859 ft 207 kts 135°
2026-05-08 00:23 34.84921 -90.08051 4472 ft 206 kts 103°
2026-05-08 00:23 34.84943 -90.06385 4285 ft 193 kts 70°
2026-05-08 00:23 34.85352 -90.05292 4127 ft 189 kts 56°
2026-05-08 00:24 34.86151 -90.04039 3894 ft 188 kts 45°
2026-05-08 00:24 34.87054 -90.02895 3629 ft 186 kts 43°
2026-05-08 00:24 34.87994 -90.01838 3447 ft 185 kts 39°
2026-05-08 00:24 34.88997 -90.00832 3190 ft 186 kts 38°
2026-05-08 00:25 34.90036 -89.99874 2840 ft 188 kts 35°
2026-05-08 00:25 34.91194 -89.99242 2620 ft 183 kts 13°
2026-05-08 00:25 34.92427 -89.98915 2358 ft 182 kts 11°
2026-05-08 00:25 34.93675 -89.98617 2033 ft 183 kts
2026-05-08 00:26 34.94925 -89.98510 1817 ft 175 kts 358°
2026-05-08 00:26 34.96114 -89.98553 1597 ft 164 kts 359°
2026-05-08 00:26 34.97205 -89.98578 1353 ft 148 kts 359°
2026-05-08 00:26 34.98185 -89.98599 1144 ft 132 kts 359°
2026-05-08 00:27 34.99051 -89.98618 975 ft 120 kts 359°
2026-05-08 00:27 34.99885 -89.98636 836 ft 120 kts 358°
2026-05-08 00:27 35.00726 -89.98655 687 ft 121 kts 358°
2026-05-08 00:27 35.01576 -89.98676 521 ft 122 kts 359°
2026-05-08 00:28 35.02420 -89.98694 363 ft 122 kts 358°
2026-05-08 00:28 35.03238 -89.98708 307 ft 101 kts 359°
2026-05-08 00:28 35.03916 -89.98727 293 ft 90 kts 359°
2026-05-08 00:28 35.04389 -89.98728 287 ft 43 kts
2026-05-08 00:29 35.04618 -89.98644 285 ft 23 kts 30°
2026-05-08 00:29 35.04756 -89.98606 284 ft 17 kts 359°
2026-05-08 00:29 35.04874 -89.98608 282 ft 16 kts 359°
2026-05-08 00:29 35.04992 -89.98591 280 ft 17 kts 24°
2026-05-08 00:30 35.05114 -89.98525 277 ft 20 kts 15°
2026-05-08 00:30 35.05265 -89.98512 273 ft 21 kts 359°
2026-05-08 00:30 35.05415 -89.98509 269 ft 21 kts 358°
2026-05-08 00:30 35.05536 -89.98508 265 ft 9 kts
2026-05-08 00:31 35.05570 -89.98461 265 ft 8 kts 91°
2026-05-08 00:31 35.05558 -89.98389 266 ft 8 kts 133°
2026-05-08 00:31 35.05506 -89.98343 267 ft 9 kts 127°
2026-05-08 00:31 35.05496 -89.98258 268 ft 9 kts 100°
2026-05-08 00:32 35.05459 -89.98247 269 ft 0 kts 181°